TimeEST,TemperatureF,Dew PointF,Humidity,Sea Level PressureIn,VisibilityMPH,Wind Direction,Wind SpeedMPH,Gust SpeedMPH,PrecipitationIn,Events,Conditions,WindDirDegrees,DateUTC
12:15 AM,19.4,6.8,58,30.55,10.0,NW,16.1,20.7,N/A,,Overcast,320,2013-11-24 05:15:00
12:35 AM,19.4,6.8,58,30.54,10.0,NNW,12.7,20.7,N/A,,Overcast,330,2013-11-24 05:35:00
12:55 AM,19.4,8.6,63,30.54,9.0,NNW,16.1,23.0,N/A,,Overcast,330,2013-11-24 05:55:00
1:15 AM,19.4,6.8,58,30.54,10.0,NW,15.0,20.7,N/A,,Overcast,310,2013-11-24 06:15:00
1:35 AM,19.4,6.8,58,30.54,10.0,NW,15.0,24.2,N/A,,Overcast,310,2013-11-24 06:35:00
1:55 AM,19.4,6.8,58,30.54,10.0,NW,15.0,19.6,N/A,,Overcast,310,2013-11-24 06:55:00
2:15 AM,19.4,6.8,58,30.54,10.0,NW,12.7,20.7,N/A,,Overcast,320,2013-11-24 07:15:00
2:35 AM,19.4,6.8,58,30.55,10.0,NW,16.1,-,N/A,,Overcast,310,2013-11-24 07:35:00
2:55 AM,19.4,6.8,58,30.55,10.0,NW,11.5,18.4,N/A,,Overcast,320,2013-11-24 07:55:00
3:15 AM,19.4,6.8,58,30.55,10.0,NW,15.0,18.4,N/A,,Overcast,310,2013-11-24 08:15:00
3:35 AM,19.4,8.6,63,30.55,10.0,NNW,13.8,26.5,N/A,,Overcast,330,2013-11-24 08:35:00
3:55 AM,19.4,10.4,68,30.54,7.0,WNW,13.8,19.6,N/A,,Overcast,300,2013-11-24 08:55:00
4:15 AM,19.4,8.6,63,30.54,10.0,NW,19.6,23.0,N/A,,Overcast,310,2013-11-24 09:15:00
4:35 AM,19.4,8.6,63,30.54,10.0,NW,11.5,-,N/A,,Overcast,320,2013-11-24 09:35:00
4:55 AM,19.4,6.8,58,30.54,10.0,NW,11.5,20.7,N/A,,Overcast,320,2013-11-24 09:55:00
5:15 AM,19.4,6.8,58,30.54,10.0,NW,16.1,23.0,N/A,,Overcast,310,2013-11-24 10:15:00
5:35 AM,19.4,6.8,58,30.55,10.0,NW,12.7,-,N/A,,Overcast,310,2013-11-24 10:35:00
5:55 AM,19.4,8.6,63,30.55,10.0,NW,10.4,-,N/A,,Overcast,320,2013-11-24 10:55:00
6:15 AM,19.4,8.6,63,30.56,10.0,NW,13.8,19.6,N/A,,Overcast,320,2013-11-24 11:15:00
6:35 AM,19.4,8.6,63,30.56,10.0,NW,15.0,19.6,N/A,,Overcast,320,2013-11-24 11:35:00
6:55 AM,19.4,6.8,58,30.55,10.0,NW,11.5,-,N/A,,Overcast,310,2013-11-24 11:55:00
7:15 AM,19.4,6.8,58,30.55,10.0,NW,11.5,-,N/A,,Overcast,310,2013-11-24 12:15:00
7:35 AM,19.4,8.6,63,30.55,10.0,NW,11.5,16.1,N/A,,Overcast,320,2013-11-24 12:35:00
7:55 AM,19.4,8.6,63,30.56,10.0,NNW,9.2,-,N/A,,Overcast,330,2013-11-24 12:55:00
8:15 AM,19.4,8.6,63,30.56,10.0,NW,10.4,19.6,N/A,,Overcast,320,2013-11-24 13:15:00
8:35 AM,19.4,8.6,63,30.56,10.0,NNW,8.1,-,N/A,,Overcast,330,2013-11-24 13:35:00
8:55 AM,19.4,8.6,63,30.57,10.0,NW,8.1,-,N/A,,Overcast,310,2013-11-24 13:55:00
9:15 AM,19.4,10.4,68,30.57,10.0,NW,8.1,-,N/A,,Overcast,320,2013-11-24 14:15:00
9:35 AM,19.4,8.6,63,30.57,10.0,WNW,10.4,-,N/A,,Overcast,290,2013-11-24 14:35:00
9:55 AM,19.4,10.4,68,30.58,10.0,WNW,9.2,-,N/A,,Overcast,300,2013-11-24 14:55:00
10:15 AM,19.4,10.4,68,30.58,10.0,WNW,9.2,-,N/A,,Overcast,290,2013-11-24 15:15:00
10:35 AM,19.4,8.6,63,30.57,10.0,WNW,9.2,-,N/A,,Overcast,300,2013-11-24 15:35:00
10:55 AM,21.2,8.6,58,30.57,10.0,NW,6.9,-,N/A,,Overcast,310,2013-11-24 15:55:00
11:15 AM,21.2,8.6,58,30.57,10.0,NW,4.6,-,N/A,,Overcast,310,2013-11-24 16:15:00
11:35 AM,21.2,10.4,63,30.56,7.0,WNW,6.9,-,N/A,,Overcast,300,2013-11-24 16:35:00
11:55 AM,21.2,12.2,68,30.55,10.0,West,8.1,-,N/A,,Overcast,270,2013-11-24 16:55:00
12:15 PM,21.2,10.4,63,30.55,10.0,West,10.4,-,N/A,,Overcast,260,2013-11-24 17:15:00
12:35 PM,21.2,10.4,63,30.53,10.0,West,9.2,-,N/A,,Overcast,280,2013-11-24 17:35:00
12:55 PM,21.2,10.4,63,30.53,10.0,West,13.8,-,N/A,,Overcast,280,2013-11-24 17:55:00
1:15 PM,21.2,8.6,58,30.52,10.0,WSW,9.2,-,N/A,,Overcast,250,2013-11-24 18:15:00
1:35 PM,21.2,8.6,58,30.52,10.0,West,12.7,-,N/A,,Overcast,270,2013-11-24 18:35:00
1:55 PM,21.2,10.4,63,30.51,10.0,WSW,10.4,-,N/A,,Overcast,250,2013-11-24 18:55:00
2:15 PM,21.2,8.6,58,30.51,10.0,West,8.1,-,N/A,,Overcast,270,2013-11-24 19:15:00
2:35 PM,21.2,8.6,58,30.50,10.0,WSW,10.4,-,N/A,,Overcast,240,2013-11-24 19:35:00
2:55 PM,21.2,8.6,58,30.50,10.0,WSW,9.2,-,N/A,,Mostly Cloudy,240,2013-11-24 19:55:00
3:15 PM,21.2,6.8,54,30.49,10.0,West,9.2,-,N/A,,Scattered Clouds,260,2013-11-24 20:15:00
3:35 PM,21.2,8.6,58,30.47,10.0,SW,5.8,-,N/A,,Clear,230,2013-11-24 20:35:00
3:55 PM,21.2,10.4,63,30.47,10.0,SSW,8.1,-,N/A,,Clear,210,2013-11-24 20:55:00
4:15 PM,21.2,8.6,58,30.46,10.0,SSW,9.2,-,N/A,,Partly Cloudy,200,2013-11-24 21:15:00
4:35 PM,21.2,8.6,58,30.44,10.0,South,8.1,-,N/A,,Partly Cloudy,190,2013-11-24 21:35:00
4:55 PM,21.2,8.6,58,30.43,10.0,SSW,5.8,-,N/A,,Mostly Cloudy,200,2013-11-24 21:55:00
5:15 PM,21.2,8.6,58,30.42,10.0,SSW,6.9,-,N/A,,Partly Cloudy,200,2013-11-24 22:15:00
5:35 PM,21.2,8.6,58,30.42,10.0,South,5.8,-,N/A,,Scattered Clouds,170,2013-11-24 22:35:00
5:55 PM,21.2,8.6,58,30.41,10.0,South,5.8,-,N/A,,Partly Cloudy,170,2013-11-24 22:55:00
6:15 PM,21.2,8.6,58,30.40,10.0,SSE,5.8,-,N/A,,Clear,160,2013-11-24 23:15:00
6:35 PM,21.2,8.6,58,30.39,10.0,South,9.2,-,N/A,,Clear,170,2013-11-24 23:35:00
6:55 PM,21.2,8.6,58,30.38,10.0,South,8.1,-,N/A,,Clear,170,2013-11-24 23:55:00
7:15 PM,21.2,8.6,58,30.37,10.0,South,9.2,-,N/A,,Partly Cloudy,180,2013-11-25 00:15:00
7:35 PM,19.4,8.6,63,30.34,10.0,South,5.8,-,N/A,,Clear,170,2013-11-25 00:35:00
7:55 PM,19.4,8.6,63,30.33,10.0,SSE,6.9,-,N/A,,Clear,160,2013-11-25 00:55:00
8:15 PM,19.4,8.6,63,30.31,10.0,SSE,9.2,-,N/A,,Clear,160,2013-11-25 01:15:00
8:35 PM,19.4,8.6,63,30.30,10.0,South,6.9,-,N/A,,Clear,170,2013-11-25 01:35:00
8:55 PM,19.4,10.4,68,30.29,10.0,South,6.9,-,N/A,,Clear,180,2013-11-25 01:55:00
9:15 PM,19.4,10.4,68,30.27,10.0,South,6.9,-,N/A,,Clear,180,2013-11-25 02:15:00
9:35 PM,21.2,10.4,63,30.25,10.0,South,4.6,-,N/A,,Clear,190,2013-11-25 02:35:00
9:55 PM,21.2,12.2,68,30.24,10.0,South,6.9,-,N/A,,Clear,190,2013-11-25 02:55:00
10:15 PM,26.6,15.8,64,30.24,10.0,SSW,12.7,18.4,N/A,,Clear,210,2013-11-25 03:15:00
10:35 PM,28.4,15.8,59,30.23,10.0,SW,15.0,27.6,N/A,,Clear,220,2013-11-25 03:35:00
10:55 PM,28.4,15.8,59,30.24,10.0,SW,11.5,20.7,N/A,,Clear,220,2013-11-25 03:55:00
11:15 PM,28.4,15.8,59,30.23,10.0,SW,11.5,21.9,N/A,,Clear,220,2013-11-25 04:15:00
11:35 PM,28.4,15.8,59,30.22,10.0,SW,13.8,20.7,N/A,,Clear,220,2013-11-25 04:35:00
11:55 PM,28.4,15.8,59,30.22,10.0,SW,9.2,24.2,N/A,,Clear,230,2013-11-25 04:55:00